DW7287 Weather Reports


time (UTC)temp
F
wind
direction
speed
knots
gust
knots
rain 1hr
in
rain 24hr
in
rain mn
in
humidity
%
barometer
mb
20200922204739 74 327 0.0 0.0 0.00 0.01 0.00 48 1020.0
20200922204239 74 328 0.0 0.0 0.00 0.01 0.00 48 1020.1
20200922203740 73 326 0.0 3.5 0.00 0.01 0.00 48 1020.2
20200922203239 73 299 0.0 0.9 0.00 0.01 0.00 51 1020.2
20200922202741 72 275 0.0 1.7 0.00 0.01 0.00 50 1020.3
20200922202243 72 248 0.0 0.9 0.00 0.01 0.00 51 1020.4
20200922201742 72 256 0.0 0.0 0.00 0.01 0.00 52 1020.4
20200922201239 72 314 0.0 5.2 0.00 0.01 0.00 49 1020.4
20200922200739 73 265 0.0 0.9 0.00 0.01 0.00 49 1020.4
20200922200239 73 314 0.0 2.6 0.00 0.01 0.00 48 1020.4
20200922195739 73 293 0.0 6.1 0.00 0.01 0.00 48 1020.3
20200922195244 72 251 0.0 4.3 0.00 0.01 0.00 52 1020.3
20200922194742 71 114 0.0 0.0 0.00 0.01 0.00 53 1020.4
20200922194239 71 121 0.0 0.0 0.00 0.01 0.00 51 1020.3
20200922193740 72 330 0.0 5.2 0.00 0.01 0.00 50 1020.4
20200922193239 73 312 0.0 4.3 0.00 0.01 0.00 49 1020.5
20200922192739 71 311 2.6 6.1 0.00 0.01 0.00 53 1020.6
20200922192241 70 262 0.0 2.6 0.00 0.01 0.00 52 1020.6
20200922191744 70 276 0.0 0.0 0.00 0.01 0.00 53 1020.6
20200922191240 70 66 0.0 5.2 0.00 0.01 0.00 50 1020.8
20200922190739 73 307 0.0 0.9 0.00 0.01 0.00 49 1020.9
20200922190239 71 332 0.0 0.0 0.00 0.01 0.00 53 1021.0
20200922185740 72 312 0.0 3.5 0.00 0.01 0.00 49 1021.0
20200922185239 72 289 0.0 3.5 0.00 0.01 0.00 48 1021.0
20200922184739 72 234 0.0 4.3 0.00 0.01 0.00 48 1021.0
20200922184240 72 222 0.0 4.3 0.00 0.01 0.00 49 1021.1
20200922183746 72 288 0.0 0.0 0.00 0.01 0.00 50 1021.3
20200922183239 72 289 0.0 2.6 0.00 0.01 0.00 51 1021.3
20200922182739 72 55 0.0 0.0 0.00 0.01 0.00 52 1021.3
20200922182239 70 55 0.9 1.7 0.00 0.01 0.00 53 1021.5
20200922181740 68 55 0.0 3.5 0.00 0.01 0.00 54 1021.7
20200922181239 68 104 0.0 2.6 0.00 0.01 0.00 56 1021.8
20200922180739 70 143 0.0 1.7 0.00 0.01 0.00 54 1021.9
20200922180239 69 143 0.0 0.9 0.00 0.01 0.00 56 1022.0
20200922175739 70 222 0.0 2.6 0.00 0.01 0.00 52 1022.0
20200922175239 71 219 1.7 2.6 0.00 0.01 0.00 52 1022.0
20200922174744 70 98 0.0 0.9 0.00 0.01 0.00 55 1022.0
20200922174239 67 88 0.0 1.7 0.00 0.01 0.00 59 1022.2
20200922173740 68 88 1.7 2.6 0.00 0.01 0.00 53 1022.3
20200922173240 70 220 2.6 2.6 0.00 0.01 0.00 53 1022.4
20200922172740 70 199 0.0 1.7 0.00 0.01 0.00 52 1022.4
20200922172239 71 295 0.0 2.6 0.00 0.01 0.00 51 1022.5
20200922171741 70 322 0.0 4.3 0.00 0.01 0.00 51 1022.7
20200922171246 70 321 2.6 6.1 0.00 0.01 0.00 52 1022.7
20200922170744 69 320 0.9 6.1 0.00 0.01 0.00 51 1022.8
20200922170240 69 277 0.9 3.5 0.00 0.01 0.00 51 1022.8
20200922165739 71 278 0.0 2.6 0.00 0.01 0.00 53 1022.8
20200922165240 70 305 0.9 2.6 0.00 0.01 0.00 55 1023.0
20200922164739 68 268 0.9 5.2 0.00 0.01 0.00 56 1023.2
20200922164239 67 25 0.9 1.7 0.00 0.01 0.00 59 1023.2
20200922163739 66 24 0.0 4.3 0.00 0.01 0.00 62 1023.3
20200922163242 66 45 2.6 4.3 0.00 0.01 0.00 58 1023.4
20200922162739 67 247 0.0 2.6 0.00 0.01 0.00 57 1023.4
20200922162239 67 279 0.9 2.6 0.00 0.01 0.00 57 1023.4
20200922161739 68 330 1.7 5.2 0.00 0.01 0.00 58 1023.5
20200922161240 67 306 2.6 6.1 0.00 0.01 0.00 61 1023.6
20200922160740 66 345 0.9 4.3 0.00 0.01 0.00 63 1023.7
20200922160240 65 94 0.9 2.6 0.00 0.01 0.00 64 1023.7
20200922155739 65 339 2.6 3.5 0.00 0.01 0.00 68 1023.7
20200922155250 65 277 0.9 2.6 0.00 0.01 0.00 67 1023.8
20200922154739 65 283 0.0 6.1 0.00 0.01 0.00 67 1023.8
20200922154239 65 293 0.9 2.6 0.00 0.01 0.00 68 1023.9
20200922153739 65 308 0.0 2.6 0.00 0.01 0.00 68 1023.9
20200922153239 65 305 0.0 2.6 0.00 0.01 0.00 68 1024.0
20200922152739 64 311 0.0 4.3 0.00 0.01 0.00 69 1024.1
20200922152239 63 311 0.9 5.2 0.00 0.01 0.00 71 1024.2
20200922151741 63 233 0.0 3.5 0.00 0.01 0.00 68 1024.1
20200922151239 63 262 1.7 1.7 0.00 0.01 0.00 72 1024.2
20200922150739 62 248 0.0 1.7 0.00 0.01 0.00 72 1024.1
20200922150239 62 239 0.0 2.6 0.00 0.01 0.00 71 1024.1
20200922145739 62 277 0.0 3.5 0.00 0.01 0.00 71 1024.1
20200922145239 62 278 0.9 2.6 0.00 0.01 0.00 72 1024.2
20200922144739 61 304 0.0 4.3 0.00 0.01 0.00 74 1024.3
20200922144239 61 304 3.5 4.3 0.00 0.01 0.00 76 1024.3
20200922143741 60 251 0.0 2.6 0.00 0.01 0.00 77 1024.3
20200922143239 59 300 0.0 0.9 0.00 0.01 0.00 82 1024.3
20200922142739 58 301 0.0 0.9 0.00 0.01 0.00 83 1024.4
20200922142239 57 359 0.0 2.6 0.00 0.01 0.00 84 1024.3
20200922141742 57 299 0.0 0.9 0.00 0.01 0.00 86 1024.2
20200922141239 56 299 0.0 1.7 0.00 0.01 0.00 85 1024.2
20200922140745 56 359 0.0 0.9 0.00 0.01 0.00 90 1024.2
20200922140239 55 359 0.0 0.9 0.00 0.01 0.00 91 1024.2
20200922135740 54 359 0.0 0.9 0.00 0.01 0.00 94 1024.3
20200922135244 53 298 0.0 0.0 0.00 0.01 0.00 95 1024.4
20200922134739 52 297 0.0 0.0 0.00 0.01 0.00 96 1024.4
20200922134239 52 298 0.0 0.0 0.00 0.01 0.00 97 1024.4
20200922133739 51 297 0.0 0.9 0.00 0.01 0.00 97 1024.3
20200922133239 50 359 0.0 0.0 0.00 0.01 0.00 98 1024.4
20200922132739 49 359 0.0 0.0 0.00 0.01 0.00 97 1024.4
20200922132249 49 291 0.0 0.9 0.00 0.01 0.00 98 1024.4
20200922131740 48 359 0.0 0.0 0.00 0.01 0.00 98 1024.4
20200922131243 47 290 0.0 0.0 0.00 0.01 0.00 98 1024.4
20200922130739 47 291 0.0 0.0 0.00 0.01 0.00 98 1024.5
20200922130241 46 290 0.0 0.0 0.00 0.01 0.00 98 1024.4
20200922125739 46 288 0.0 0.9 0.00 0.01 0.00 98 1024.4
20200922125239 45 290 0.0 0.0 0.00 0.01 0.00 98 1024.5
20200922124739 45 288 0.0 0.0 0.00 0.01 0.00 98 1024.5
20200922124240 44 359 0.0 0.0 0.00 0.01 0.00 98 1024.6
20200922123739 43 288 0.0 0.0 0.00 0.01 0.00 97 1024.6
20200922123241 42 289 0.0 0.0 0.00 0.01 0.00 97 1024.6
20200922122741 42 287 0.0 0.0 0.00 0.01 0.00 97 1024.7
20200922122307 41 291 0.0 0.0 0.00 0.01 0.00 97 1024.7
20200922121748 40 291 0.0 0.0 0.00 0.01 0.00 97 1024.8
20200922121239 40 289 0.0 0.0 0.00 0.01 0.00 97 1024.8
20200922120739 40 291 0.0 0.0 0.00 0.01 0.00 97 1024.9
20200922120240 40 359 0.0 0.0 0.00 0.01 0.00 97 1024.9
20200922115739 39 289 0.0 0.0 0.00 0.01 0.00 97 1024.7
20200922115239 39 359 0.0 0.0 0.00 0.01 0.00 97 1024.8
20200922114739 39 290 0.0 0.0 0.00 0.01 0.00 97 1024.8
20200922114239 39 291 0.0 0.0 0.00 0.01 0.00 97 1024.8
20200922113739 39 289 0.0 0.0 0.00 0.01 0.00 97 1024.8
20200922113239 39 291 0.0 0.0 0.00 0.01 0.00 97 1024.8
20200922112741 39 290 0.0 0.0 0.00 0.01 0.00 97 1024.7
20200922112239 39 359 0.0 0.0 0.00 0.01 0.00 97 1024.7
20200922111739 40 359 0.0 0.0 0.00 0.01 0.00 97 1024.6
20200922111239 40 359 0.0 0.0 0.00 0.01 0.00 97 1024.6
20200922110739 40 291 0.0 0.0 0.00 0.01 0.00 97 1024.6
20200922110241 40 289 0.0 0.0 0.00 0.01 0.00 97 1024.7
20200922105739 40 289 0.0 0.0 0.00 0.01 0.00 97 1024.8
20200922105239 40 289 0.0 0.0 0.00 0.01 0.00 97 1024.8
20200922104742 40 289 0.0 0.0 0.00 0.01 0.00 97 1024.7
20200922104244 40 291 0.0 0.0 0.00 0.01 0.00 97 1024.8
20200922103740 40 359 0.0 0.0 0.00 0.01 0.00 97 1024.8
20200922103240 40 359 0.0 0.0 0.00 0.01 0.00 97 1024.8
20200922102740 40 359 0.0 0.0 0.00 0.01 0.00 97 1024.7
20200922102247 40 290 0.0 0.0 0.00 0.01 0.00 97 1024.7
20200922101739 40 290 0.0 0.0 0.00 0.01 0.00 97 1024.5
20200922101239 40 290 0.0 0.0 0.00 0.01 0.00 97 1024.6
20200922100745 40 290 0.0 0.0 0.00 0.01 0.00 97 1024.5
20200922100239 40 289 0.0 0.0 0.00 0.01 0.00 97 1024.6
20200922095741 40 359 0.0 0.0 0.00 0.01 0.00 97 1024.6
20200922095243 41 289 0.0 0.0 0.00 0.01 0.00 97 1024.6
20200922094738 41 290 0.0 0.0 0.00 0.01 0.00 97 1024.6
20200922094239 41 289 0.0 0.0 0.00 0.01 0.00 97 1024.6
20200922093743 41 359 0.0 0.0 0.00 0.01 0.00 97 1024.6
20200922093241 41 290 0.0 0.0 0.00 0.01 0.00 97 1024.6
20200922092739 41 289 0.0 0.0 0.00 0.01 0.00 97 1024.7
20200922092244 41 290 0.0 0.0 0.00 0.01 0.00 97 1024.7
20200922091739 41 289 0.0 0.0 0.00 0.01 0.00 97 1024.7
20200922091238 41 291 0.0 0.0 0.00 0.01 0.00 97 1024.7
20200922090739 42 359 0.0 0.0 0.00 0.01 0.00 97 1024.8
20200922090239 42 289 0.0 0.0 0.00 0.01 0.00 97 1024.8
20200922085739 42 359 0.0 0.0 0.01 0.01 0.00 97 1024.8
20200922085241 42 359 0.0 0.0 0.01 0.01 0.00 97 1024.8
20200922084739 42 289 0.0 0.0 0.01 0.01 0.00 97 1024.8
20200922084239 42 359 0.0 0.0 0.01 0.01 0.00 97 1024.8
20200922083738 42 359 0.0 0.0 0.01 0.01 0.00 97 1024.8
20200922083242 42 290 0.0 0.0 0.01 0.01 0.00 97 1025.0
20200922082738 42 359 0.0 0.0 0.01 0.01 0.00 97 1025.0
20200922082239 43 291 0.0 0.0 0.01 0.01 0.00 97 1025.0
20200922081740 43 359 0.0 0.0 0.01 0.01 0.00 97 1025.1
20200922081239 43 289 0.0 0.0 0.01 0.01 0.00 97 1025.2
20200922080739 43 289 0.0 0.0 0.01 0.01 0.00 97 1025.1
20200922080238 43 289 0.0 0.0 0.01 0.01 0.00 97 1025.2
20200922075738 43 290 0.0 0.0 0.00 0.00 0.00 97 1025.2
20200922075241 43 289 0.0 0.0 0.00 0.00 0.00 97 1025.3
20200922074742 43 289 0.0 0.0 0.00 0.00 0.00 97 1025.3
20200922074244 43 289 0.0 0.0 0.00 0.00 0.00 97 1025.4
20200922073738 43 359 0.0 0.0 0.00 0.00 0.00 96 1025.5
20200922073240 43 291 0.0 0.0 0.00 0.00 0.00 97 1025.5
20200922072738 43 359 0.0 0.0 0.00 0.00 0.00 97 1025.6
20200922072239 43 359 0.0 0.0 0.00 0.00 0.00 97 1025.5
20200922071739 43 291 0.0 0.0 0.00 0.00 0.00 96 1025.5
20200922071239 43 289 0.0 0.0 0.00 0.00 0.00 96 1025.6
20200922070738 43 289 0.0 0.0 0.00 0.00 0.00 96 1025.6
20200922070238 43 359 0.0 0.0 0.00 0.00 0.00 96 1025.6
20200922065738 44 290 0.0 0.0 0.00 0.00 0.00 97 1025.6
20200922065248 44 359 0.0 0.0 0.00 0.00 0.00 97 1025.7
20200922064742 44 291 0.0 0.0 0.00 0.00 0.00 97 1025.7
20200922064239 44 359 0.0 0.0 0.00 0.00 0.00 96 1025.7
20200922063739 44 291 0.0 0.0 0.00 0.00 0.00 96 1025.8
20200922063239 44 289 0.0 0.0 0.00 0.00 0.00 97 1025.8
20200922062738 44 289 0.0 0.0 0.00 0.00 0.00 96 1025.8
20200922062248 44 291 0.0 0.0 0.00 0.00 0.00 96 1025.8
20200922061739 44 359 0.0 0.0 0.00 0.00 0.00 96 1025.9
20200922061239 45 290 0.0 0.0 0.00 0.00 0.00 96 1025.9
20200922060739 45 291 0.0 0.0 0.00 0.00 0.00 96 1026.0
20200922060240 45 359 0.0 0.0 0.00 0.00 0.00 96 1026.0
20200922055740 45 359 0.0 0.0 0.00 0.00 0.00 96 1026.0
20200922055238 45 289 0.0 0.0 0.00 0.00 0.00 96 1026.2
20200922054739 45 289 0.0 0.0 0.00 0.00 0.00 96 1026.2
20200922054238 45 289 0.0 0.0 0.00 0.00 0.00 96 1026.2
20200922053740 45 289 0.0 0.0 0.00 0.00 0.00 96 1026.3
20200922053239 45 289 0.0 0.0 0.00 0.00 0.00 96 1026.3
20200922052744 45 290 0.0 0.0 0.00 0.00 0.00 96 1026.4
20200922052240 45 289 0.0 0.0 0.00 0.00 0.00 96 1026.4
20200922051739 46 359 0.0 0.0 0.00 0.00 0.00 96 1026.4
20200922051242 46 290 0.0 0.0 0.00 0.00 0.00 96 1026.4
20200922050738 46 289 0.0 0.0 0.00 0.00 0.00 96 1026.5
20200922050239 46 290 0.0 0.0 0.00 0.00 0.00 96 1026.5
20200922045742 46 289 0.0 0.0 0.00 0.00 0.00 96 1026.5
20200922045238 46 289 0.0 0.0 0.00 0.00 0.00 96 1026.5
20200922044741 46 289 0.0 0.0 0.00 0.00 0.00 96 1026.5
20200922044238 46 289 0.0 0.0 0.00 0.00 0.00 96 1026.5
20200922043740 46 290 0.0 0.0 0.00 0.00 0.00 96 1026.6
20200922043238 46 289 0.0 0.0 0.00 0.00 0.00 96 1026.6
20200922042739 47 359 0.0 0.0 0.00 0.00 0.00 96 1026.7
20200922042245 47 359 0.0 0.0 0.00 0.00 0.00 96 1026.8
20200922041741 47 359 0.0 0.0 0.00 0.00 0.00 96 1026.8
20200922041239 47 359 0.0 0.0 0.00 0.00 0.00 96 1026.8
20200922040742 47 290 0.0 0.0 0.00 0.00 0.00 96 1026.9
20200922040239 47 289 0.0 0.0 0.00 0.00 0.00 96 1026.9
20200922035738 47 289 0.0 0.0 0.00 0.00 0.00 96 1026.9
20200922035244 48 290 0.0 0.0 0.00 0.00 0.00 96 1026.9
20200922034739 48 289 0.0 0.0 0.00 0.00 0.00 96 1026.9
20200922034238 48 289 0.0 0.0 0.00 0.00 0.00 96 1026.9
20200922033739 48 290 0.0 0.0 0.00 0.00 0.00 96 1027.0
20200922033238 48 289 0.0 0.0 0.00 0.00 0.00 96 1027.0
20200922032740 48 289 0.0 0.0 0.00 0.00 0.00 96 1026.9
20200922032239 48 289 0.0 0.0 0.00 0.00 0.00 96 1026.9
20200922031739 48 290 0.0 0.0 0.00 0.00 0.00 96 1026.9
20200922031238 48 290 0.0 0.0 0.00 0.00 0.00 96 1027.0
20200922030742 48 289 0.0 0.0 0.00 0.00 0.00 96 1026.9
20200922030242 49 289 0.0 0.0 0.00 0.00 0.00 96 1026.9
20200922025739 49 289 0.0 0.0 0.00 0.00 0.00 95 1027.0
20200922025246 49 289 0.0 0.0 0.00 0.00 0.00 95 1027.0
20200922024738 49 289 0.0 0.9 0.00 0.00 0.00 95 1027.0
20200922024241 49 289 0.0 0.0 0.00 0.00 0.00 95 1027.0
20200922023739 49 290 0.0 0.9 0.00 0.00 0.00 95 1027.1
20200922023239 49 289 0.0 0.0 0.00 0.00 0.00 95 1027.0
20200922022739 49 290 0.0 0.0 0.00 0.00 0.00 95 1027.1
20200922022239 49 290 0.0 0.0 0.00 0.00 0.00 95 1027.1
20200922021739 49 290 0.0 0.0 0.00 0.00 0.00 94 1027.1
20200922021239 49 290 0.0 0.0 0.00 0.00 0.00 95 1027.2
20200922020741 50 289 0.0 0.0 0.00 0.00 0.00 94 1027.1
20200922020238 50 290 0.0 0.0 0.00 0.00 0.00 94 1027.0
20200922015739 50 289 0.0 0.0 0.00 0.00 0.00 94 1027.1
20200922015238 50 289 0.0 0.0 0.00 0.00 0.00 94 1027.1
20200922014740 50 289 0.0 0.0 0.00 0.00 0.00 94 1027.1
20200922014239 50 289 0.0 0.0 0.00 0.00 0.00 94 1027.1
20200922013739 50 290 0.0 0.0 0.00 0.00 0.00 93 1027.1
20200922013238 51 289 0.0 0.0 0.00 0.00 0.00 93 1027.0
20200922012739 51 290 0.0 0.0 0.00 0.00 0.00 93 1027.0
20200922012240 51 290 0.0 0.0 0.00 0.00 0.00 93 1027.1
20200922011739 51 290 0.0 0.0 0.00 0.00 0.00 93 1027.1
20200922011241 51 290 0.0 0.0 0.00 0.00 0.00 92 1027.1
20200922010741 52 289 0.0 0.0 0.00 0.00 0.00 92 1027.1
20200922010238 52 290 0.0 0.0 0.00 0.00 0.00 92 1027.1
20200922005740 52 289 0.0 0.0 0.00 0.00 0.00 91 1027.2
20200922005239 52 289 0.0 0.0 0.00 0.00 0.00 91 1027.2
20200922004740 52 290 0.0 0.0 0.00 0.00 0.00 91 1027.2
20200922004242 53 290 0.0 0.0 0.00 0.00 0.00 90 1027.2
20200922003738 53 290 0.0 0.0 0.00 0.00 0.00 90 1027.1
20200922003241 53 290 0.0 0.0 0.00 0.00 0.00 89 1027.1
20200922002741 54 289 0.0 0.0 0.00 0.00 0.00 89 1027.1
20200922002239 54 290 0.0 0.0 0.00 0.00 0.00 88 1027.0
20200922001742 54 290 0.0 0.0 0.00 0.00 0.00 88 1027.0
20200922001238 55 290 0.0 0.0 0.00 0.00 0.00 87 1026.9
20200922000739 55 290 0.0 0.0 0.00 0.00 0.00 86 1026.9
20200922000243 55 290 0.0 0.0 0.00 0.00 0.00 86 1026.8
20200921235739 56 290 0.0 0.0 0.00 0.00 0.00 85 1026.9
20200921235239 56 290 0.0 0.0 0.00 0.00 0.00 84 1026.8
20200921234743 56 289 0.0 0.0 0.00 0.00 0.00 83 1026.8
20200921234238 57 290 0.0 0.0 0.00 0.00 0.00 82 1026.8
20200921233739 57 290 0.0 0.0 0.00 0.00 0.00 81 1026.8
20200921233239 58 290 0.0 0.0 0.00 0.00 0.00 81 1026.8
20200921232739 58 290 0.0 0.0 0.00 0.00 0.00 80 1026.9
20200921232241 59 289 0.0 0.0 0.00 0.00 0.00 79 1026.8
20200921231739 59 289 0.0 0.0 0.00 0.00 0.00 77 1026.7
20200921231238 60 290 0.0 0.0 0.00 0.00 0.00 77 1026.8
20200921230738 60 289 0.0 0.0 0.00 0.00 0.00 75 1026.8
20200921230238 60 290 0.0 0.0 0.00 0.00 0.00 75 1026.8
20200921225739 61 290 0.0 0.0 0.00 0.00 0.00 74 1026.8
20200921225242 62 289 0.0 0.0 0.00 0.00 0.00 73 1027.0
20200921224738 62 290 0.0 0.0 0.00 0.00 0.00 70 1026.9
20200921224241 63 290 0.0 0.0 0.00 0.00 0.00 70 1026.9
20200921223740 63 289 0.0 0.0 0.00 0.00 0.00 68 1026.9
20200921223238 65 290 0.0 0.0 0.00 0.00 0.00 64 1027.0
20200921222739 65 289 0.0 0.0 0.00 0.00 0.00 62 1027.1
20200921222250 66 289 0.0 0.0 0.00 0.00 0.00 60 1027.2
20200921221739 66 290 0.0 0.0 0.00 0.00 0.00 59 1027.2
20200921221241 67 288 0.0 0.0 0.00 0.00 0.00 59 1027.2
20200921220739 67 288 0.0 0.0 0.00 0.00 0.00 57 1027.2
20200921220239 68 81 0.0 0.9 0.00 0.00 0.00 56 1027.2
20200921215739 68 74 0.0 0.0 0.00 0.00 0.00 56 1027.3
20200921215239 68 99 0.0 0.9 0.00 0.00 0.00 56 1027.2
20200921214742 69 97 0.0 0.0 0.00 0.00 0.00 55 1027.3
20200921214241 69 97 0.0 0.0 0.00 0.00 0.00 54 1027.3
20200921213740 69 97 0.0 0.0 0.00 0.00 0.00 53 1027.3
20200921213239 69 118 0.0 0.0 0.00 0.00 0.00 55 1027.3
20200921212741 69 4 0.0 0.0 0.00 0.00 0.00 54 1027.3
20200921212240 70 88 0.0 0.0 0.00 0.00 0.00 52 1027.3
20200921211738 69 88 0.0 0.9 0.00 0.00 0.00 53 1027.3
20200921211238 70 333 0.0 1.7 0.00 0.00 0.00 50 1027.4
20200921210739 70 24 0.0 0.0 0.00 0.00 0.00 53 1027.5
20200921210241 70 81 0.0 0.0 0.00 0.00 0.00 51 1027.5
20200921205739 69 81 0.0 0.0 0.00 0.00 0.00 53 1027.5
20200921205246 69 91 0.0 0.0 0.00 0.00 0.00 52 1027.5